FENGYUN 1C DEB

Satellite information

Favourite Embed

Satellite Type and Status

DEBRISIN ORBIT

Key statistics

Satellite FENGYUN 1C DEB at a glance.

Uptime

9493

Days in orbit

Revolutions

≈ 14.1

Per day

Orbit

SSO

Sun Synchronous Orbit

Inclination

98.7

Latest

Satellite identification and parameters

Extended collection of information and parameters for FENGYUN 1C DEB.

Object identification

Identified? True

Debris? True

Object name: FENGYUN 1C DEB

International designator: 1999-025CBW

Object number (NORAD): 31664

Object ID (CCSDS): 31664

Country: PEOPLES REPUBLIC OF CHINA (PRC)

Current information (Y/N): Y

RCS size: SMALL

Orbital parameters

Period: 102.134 minutes

Inclination: 98.7399 deg

SMA: 7237.797 km

Apoapsis: 951.228 km

Periapsis: 768.096 km

RAAN: 122.9966 deg

Eccentricy: 0.0126511

Argument of periapsis: 65.538 deg

Mean anomaly: 295.8926 deg

Mean motion: 14.09915838 rev/day

Mean motion (dot): 0.00001207 rev/day2

B* drag term: 0.00065839 1/REarth

Two-line elements (TLE)

Creation date: May 6, 2025, 3:54 a.m.

Reference frame: TEME

Reference center: EARTH

Epoch: May 5, 2025, 10:04 a.m. UTC

TLE line 0: 0 FENGYUN 1C DEB

TLE line 1: 1 31664U 99025CBW 25125.41966898 .00001207 00000-0 65839-3 0 9995

TLE line 2: 2 31664 98.7399 122.9966 0126511 65.5380 295.8926 14.09915838928823

Live tracking on map

Real-time ground track for satellite FENGYUN 1C DEB.

In-orbit conjunctions

A list of the most updated potential collisions computed for object FENGYUN 1C DEB.

Target Orbit TCA Probability of collision Miss distance Type
NOAA 16 DEB SSO 2025-03-22 04:28:45 0.0001367779 273.0 (m) DEBRIS
CZ-6A DEB LEO 2025-01-11 05:42:20 0.0007943877 48.0 (m) DEBRIS

Associated space launch

Chinese polar orbiting meteorological satellite

FENGYUN 1C DEB was lifted into orbit during the mission ‘Long March 4B | Feng Yun 1C’, on board a Long March 4B space rocket.

The launch took place on May 10, 1999, 1:33 a.m. from Launch Complex 7.

For more information about the launch, click the button.

Launch to space Long March 4B | Feng Yun 1C
Long March 4B | Feng Yun 1C

Agency: N/A

Status: Launch Successful

Launch date: May 10, 1999, 1:33 a.m. UTC

Rocket: Long March 4B

Launch pad: Launch Complex 7

Location: Taiyuan Satellite Launch Center, People's Republic of China

...

Latest news about this satellite

There are no fresh news available about this satellite. Check back as we update our databases every day.


Newsletter sign-up

Weekly statistics, charts and insights to help you stay on top of the space industry.